TimeCST,TemperatureF,Dew PointF,Humidity,Sea Level PressureIn,VisibilityMPH,Wind Direction,Wind SpeedMPH,Gust SpeedMPH,PrecipitationIn,Events,Conditions,WindDirDegrees,DateUTC
12:15 AM,26.6,24.8,93,29.94,5.0,Calm,Calm,-,N/A,,Clear,0,2013-02-13 06:15:00
12:35 AM,23.0,23.0,100,29.94,2.0,Calm,Calm,-,N/A,,Mostly Cloudy,0,2013-02-13 06:35:00
12:55 AM,23.0,23.0,100,29.94,4.0,Calm,Calm,-,N/A,,Clear,0,2013-02-13 06:55:00
1:15 AM,23.0,23.0,100,29.93,4.0,Calm,Calm,-,N/A,,Clear,0,2013-02-13 07:15:00
1:35 AM,23.0,23.0,100,29.92,4.0,Calm,Calm,-,N/A,,Clear,0,2013-02-13 07:35:00
1:55 AM,24.8,24.8,100,29.91,4.0,Calm,Calm,-,N/A,,Clear,0,2013-02-13 07:55:00
2:15 AM,23.0,23.0,100,29.91,4.0,Calm,Calm,-,N/A,,Clear,0,2013-02-13 08:15:00
2:35 AM,23.0,23.0,100,29.90,4.0,Calm,Calm,-,N/A,,Clear,0,2013-02-13 08:35:00
2:55 AM,23.0,23.0,100,29.89,4.0,Calm,Calm,-,N/A,,Clear,0,2013-02-13 08:55:00
3:15 AM,23.0,23.0,100,29.88,4.0,Calm,Calm,-,N/A,,Clear,0,2013-02-13 09:15:00
3:35 AM,23.0,23.0,100,29.89,4.0,Calm,Calm,-,N/A,,Clear,0,2013-02-13 09:35:00
3:55 AM,23.0,23.0,100,29.88,4.0,Calm,Calm,-,N/A,,Clear,0,2013-02-13 09:55:00
4:15 AM,23.0,23.0,100,29.87,4.0,Calm,Calm,-,N/A,,Clear,0,2013-02-13 10:15:00
4:35 AM,23.0,23.0,100,29.86,4.0,Calm,Calm,-,N/A,,Scattered Clouds,0,2013-02-13 10:35:00
4:55 AM,23.0,23.0,100,29.86,5.0,Calm,Calm,-,N/A,,Scattered Clouds,0,2013-02-13 10:55:00
5:15 AM,24.8,23.0,93,29.85,4.0,Calm,Calm,-,N/A,,Scattered Clouds,0,2013-02-13 11:15:00
5:35 AM,23.0,23.0,100,29.84,5.0,Calm,Calm,-,N/A,,Scattered Clouds,0,2013-02-13 11:35:00
5:55 AM,23.0,23.0,100,29.83,4.0,Calm,Calm,-,N/A,,Clear,0,2013-02-13 11:55:00
6:15 AM,24.8,24.8,100,29.83,4.0,Calm,Calm,-,N/A,,Clear,0,2013-02-13 12:15:00
6:35 AM,24.8,23.0,93,29.83,5.0,Calm,Calm,-,N/A,,Clear,0,2013-02-13 12:35:00
6:55 AM,24.8,23.0,93,29.83,5.0,SSE,3.5,-,N/A,,Clear,160,2013-02-13 12:55:00
7:15 AM,24.8,24.8,100,29.83,4.0,South,3.5,-,N/A,,Clear,170,2013-02-13 13:15:00
7:35 AM,26.6,26.6,100,29.83,3.0,Calm,Calm,-,N/A,,Clear,0,2013-02-13 13:35:00
7:55 AM,28.4,28.4,100,29.83,3.0,South,4.6,-,N/A,,Scattered Clouds,170,2013-02-13 13:55:00
8:15 AM,30.2,30.2,100,29.83,4.0,South,5.8,-,N/A,,Scattered Clouds,170,2013-02-13 14:15:00
8:35 AM,30.2,30.2,100,29.83,4.0,South,5.8,-,N/A,,Clear,180,2013-02-13 14:35:00
8:55 AM,32.0,32.0,100,29.83,5.0,South,8.1,-,N/A,,Scattered Clouds,180,2013-02-13 14:55:00
9:15 AM,33.8,32.0,93,29.83,5.0,South,9.2,-,N/A,,Clear,180,2013-02-13 15:15:00
9:35 AM,33.8,32.0,93,29.83,7.0,South,8.1,-,N/A,,Clear,180,2013-02-13 15:35:00
9:55 AM,35.6,32.0,87,29.83,7.0,South,10.4,-,N/A,,Clear,170,2013-02-13 15:55:00
10:15 AM,35.6,32.0,87,29.83,7.0,South,10.4,-,N/A,,Clear,190,2013-02-13 16:15:00
10:35 AM,35.6,32.0,87,29.82,7.0,SSW,10.4,-,N/A,,Clear,200,2013-02-13 16:35:00
10:55 AM,37.4,32.0,81,29.82,7.0,SSW,12.7,-,N/A,,Clear,200,2013-02-13 16:55:00
11:15 AM,39.2,32.0,75,29.81,10.0,SW,11.5,-,N/A,,Scattered Clouds,220,2013-02-13 17:15:00
11:35 AM,41.0,32.0,70,29.81,10.0,SSW,10.4,-,N/A,,Scattered Clouds,210,2013-02-13 17:35:00
11:55 AM,41.0,32.0,70,29.79,10.0,SSW,10.4,-,N/A,,Scattered Clouds,210,2013-02-13 17:55:00
12:15 PM,42.8,32.0,66,29.78,10.0,SW,9.2,-,N/A,,Clear,220,2013-02-13 18:15:00
12:35 PM,42.8,32.0,66,29.76,10.0,SW,9.2,-,N/A,,Clear,220,2013-02-13 18:35:00
12:55 PM,42.8,32.0,66,29.76,10.0,SSW,12.7,-,N/A,,Clear,210,2013-02-13 18:55:00
1:15 PM,44.6,32.0,61,29.75,10.0,SSW,12.7,-,N/A,,Clear,200,2013-02-13 19:15:00
1:35 PM,44.6,32.0,61,29.75,10.0,SW,12.7,-,N/A,,Clear,230,2013-02-13 19:35:00
1:55 PM,44.6,32.0,61,29.74,10.0,SW,12.7,-,N/A,,Clear,220,2013-02-13 19:55:00
2:15 PM,44.6,32.0,61,29.74,10.0,SW,15.0,18.4,N/A,,Clear,220,2013-02-13 20:15:00
2:35 PM,44.6,32.0,61,29.74,10.0,SW,12.7,18.4,N/A,,Clear,220,2013-02-13 20:35:00
2:55 PM,44.6,32.0,61,29.74,10.0,SW,16.1,-,N/A,,Clear,230,2013-02-13 20:55:00
3:15 PM,44.6,32.0,61,29.74,10.0,WSW,12.7,18.4,N/A,,Clear,240,2013-02-13 21:15:00
3:35 PM,44.6,32.0,61,29.74,10.0,SW,11.5,-,N/A,,Clear,230,2013-02-13 21:35:00
3:55 PM,44.6,32.0,61,29.74,10.0,WSW,13.8,-,N/A,,Clear,240,2013-02-13 21:55:00
4:15 PM,44.6,32.0,61,29.75,10.0,WSW,10.4,-,N/A,,Clear,240,2013-02-13 22:15:00
4:35 PM,42.8,32.0,66,29.75,10.0,WSW,9.2,-,N/A,,Clear,240,2013-02-13 22:35:00
4:55 PM,41.0,32.0,70,29.75,10.0,WSW,8.1,-,N/A,,Clear,240,2013-02-13 22:55:00
5:15 PM,41.0,32.0,70,29.76,10.0,WSW,9.2,-,N/A,,Clear,240,2013-02-13 23:15:00
5:35 PM,39.2,32.0,75,29.76,10.0,WSW,9.2,-,N/A,,Scattered Clouds,250,2013-02-13 23:35:00
5:55 PM,37.4,32.0,81,29.77,10.0,WSW,8.1,-,N/A,,Scattered Clouds,250,2013-02-13 23:55:00
6:15 PM,37.4,32.0,81,29.78,10.0,West,5.8,-,N/A,,Scattered Clouds,260,2013-02-14 00:15:00
6:35 PM,35.6,32.0,87,29.78,10.0,WSW,5.8,-,N/A,,Scattered Clouds,250,2013-02-14 00:35:00
6:55 PM,35.6,32.0,87,29.79,10.0,SW,4.6,-,N/A,,Scattered Clouds,230,2013-02-14 00:55:00
7:15 PM,35.6,32.0,87,29.79,10.0,SW,4.6,-,N/A,,Clear,230,2013-02-14 01:15:00
7:35 PM,33.8,32.0,93,29.78,10.0,SW,5.8,-,N/A,,Clear,230,2013-02-14 01:35:00
7:55 PM,33.8,32.0,93,29.79,10.0,SW,4.6,-,N/A,,Scattered Clouds,230,2013-02-14 01:55:00
8:15 PM,33.8,32.0,93,29.79,10.0,SW,5.8,-,N/A,,Scattered Clouds,230,2013-02-14 02:15:00
8:35 PM,33.8,32.0,93,29.79,10.0,WSW,4.6,-,N/A,,Scattered Clouds,240,2013-02-14 02:35:00
8:55 PM,32.0,32.0,100,29.79,7.0,Calm,Calm,-,N/A,,Mostly Cloudy,0,2013-02-14 02:55:00
9:15 PM,32.0,32.0,100,29.79,10.0,Calm,Calm,-,N/A,,Mostly Cloudy,0,2013-02-14 03:15:00
9:35 PM,33.8,32.0,93,29.79,10.0,SSW,3.5,-,N/A,,Mostly Cloudy,210,2013-02-14 03:35:00
9:55 PM,32.0,32.0,100,29.79,7.0,SW,3.5,-,N/A,,Scattered Clouds,220,2013-02-14 03:55:00
10:15 PM,32.0,32.0,100,29.79,7.0,Calm,Calm,-,N/A,,Mostly Cloudy,0,2013-02-14 04:15:00
10:35 PM,33.8,32.0,93,29.79,10.0,WSW,4.6,-,N/A,,Mostly Cloudy,240,2013-02-14 04:35:00
10:55 PM,32.0,30.2,93,29.79,7.0,SW,4.6,-,N/A,,Scattered Clouds,220,2013-02-14 04:55:00
11:15 PM,32.0,30.2,93,29.79,7.0,SSW,5.8,-,N/A,,Scattered Clouds,210,2013-02-14 05:15:00
11:35 PM,32.0,30.2,93,29.78,7.0,South,4.6,-,N/A,,Scattered Clouds,190,2013-02-14 05:35:00
11:55 PM,32.0,30.2,93,29.78,7.0,South,4.6,-,N/A,,Mostly Cloudy,190,2013-02-14 05:55:00